Weather History for Sault Ste Marie, MI

Change the Weather History Date:

Tuesday, January 3, 2012

  Actual Average Record
Temperature  
Mean Temperature 6 °F 17 °F  
Max Temperature 20 °F 24 °F 44 °F (1897)
Min Temperature -8 °F 9 °F -28 °F (1981)
Degree Days  
Heating Degree Days 59 48  
Month to date heating degree days 141 144  
Since 1 July heating degree days 2833 3403  
Moisture  
Dew Point -2 °F    
Average Humidity 66    
Maximum Humidity 80    
Minimum Humidity 51    
Precipitation  
Precipitation 0.01 in 0.08 in 1.61 in (1897)
Month to date precipitation 0.55 0.23  
Year to date precipitation 0.55 0.23  
Snow  
Snow 0.20 in 1.10 in 5.40 in (1957)
Month to date snowfall 8.0 3.1  
Since 1 July snowfall 25.0 53.3  
Snow Depth 6.00 in    
Sea Level Pressure  
Sea Level Pressure 30.17 in    
Wind  
Wind Speed 7 mph (East)    
Max Wind Speed 14 mph    
Max Gust Speed 22 mph    
Visibility 9 miles    
Events Snow    
T = Trace of Precipitation, MM = Missing Value Source: NWS Daily Summary

Daily Weather History Graph

Daily Weather History Graph

Search for Another Location

Airport:

Trip Planner

Search our weather history database for the weather conditions in past years. The results will help you decide how hot, cold, wet, or windy it might be!

Date:

Astronomy

Jan. 03, 2012 Rise Set
Actual Time 8:21 AM EST 5:02 PM EST
Civil Twilight 7:46 AM EST 5:37 PM EST
Nautical Twilight 7:08 AM EST 6:15 PM EST
Astronomical Twilight 6:31 AM EST 6:52 PM EST
Moon 12:54 PM EST (1/3) 3:04 AM EST (1/3)
Length of Visible Light 9h 50m
Length of Day
8h 41m
Waxing Gibbous, 72% of the Moon is Illuminated
Jan 3
Waxing Gibbous
Jan 9
Full
Jan 16
Last Quarter
Jan 23
New
Jan 30
First Quarter

Hourly Weather History & Observations

Time (EST) Temp. Windchill Dew Point Humidity Pressure Visibility Wind Dir Wind Speed Gust Speed Precip Events Conditions
12:21 AM 3.2 °F -9.1 °F -5.8 °F 66% 30.14 in 2.0 mi NNE 6.9 mph - 0.00 in Snow Light Snow
12:55 AM 3.0 °F -11.5 °F -4.0 °F 73% 30.17 in 2.0 mi North 9.2 mph - 0.00 in Snow Light Snow
1:15 AM 3.2 °F -10.3 °F -4.0 °F 72% 30.14 in 1.5 mi North 8.1 mph 19.6 mph 0.00 in Snow Light Snow
1:55 AM 1.9 °F -15.5 °F -5.1 °F 72% 30.19 in 1.5 mi North 12.7 mph 21.9 mph 0.01 in Snow Light Snow
2:17 AM 1.4 °F -16.1 °F -5.8 °F 72% 30.15 in 3.0 mi North 12.7 mph 19.6 mph 0.00 in Snow Light Snow
2:55 AM -0.0 °F -16.3 °F -9.9 °F 63% 30.22 in 10.0 mi North 10.4 mph 19.6 mph 0.00 in   Scattered Clouds
3:55 AM -0.9 °F -18.3 °F -14.1 °F 54% 30.25 in 10.0 mi NNE 11.5 mph - N/A   Clear
4:55 AM -2.9 °F -19.8 °F -14.1 °F 59% 30.27 in 10.0 mi North 10.4 mph - N/A   Clear
6:55 AM -2.9 °F -15.0 °F -13.0 °F 62% 30.31 in 10.0 mi NNW 5.8 mph - N/A   Clear
7:55 AM -4.0 °F - -13.0 °F 65% 30.32 in 10.0 mi Calm Calm - N/A   Clear
8:55 AM -7.1 °F - -13.0 °F 75% 30.33 in 10.0 mi Calm Calm - N/A   Clear
9:55 AM -0.9 °F -12.7 °F -9.9 °F 66% 30.35 in 10.0 mi ENE 5.8 mph - N/A   Clear
10:55 AM 3.0 °F -6.4 °F -7.1 °F 63% 30.33 in 10.0 mi East 4.6 mph - N/A   Clear
11:55 AM 5.0 °F - -6.0 °F 61% 30.29 in 10.0 mi Calm Calm - N/A   Clear
12:55 PM 5.0 °F -6.9 °F -5.1 °F 63% 30.27 in 10.0 mi South 6.9 mph - N/A   Clear
1:55 PM 7.0 °F -3.3 °F -0.9 °F 70% 30.26 in 10.0 mi SSW 5.8 mph - N/A   Clear
2:55 PM 9.0 °F -0.9 °F -0.0 °F 67% 30.24 in 10.0 mi SSW 5.8 mph - N/A   Clear
3:55 PM 10.0 °F -0.9 °F 1.0 °F 67% 30.20 in 10.0 mi SE 6.9 mph - N/A   Scattered Clouds
4:55 PM 10.9 °F -0.8 °F 3.0 °F 70% 30.17 in 10.0 mi SSE 8.1 mph - N/A   Overcast
5:55 PM 10.9 °F -0.8 °F 3.9 °F 73% 30.14 in 10.0 mi SE 8.1 mph - N/A   Mostly Cloudy
6:55 PM 12.0 °F 1.5 °F 5.0 °F 73% 30.11 in 10.0 mi ESE 6.9 mph - N/A   Overcast
7:07 PM 12.2 °F 0.7 °F 6.8 °F 79% 30.05 in 10.0 mi ESE 8.1 mph - N/A   Overcast
7:16 PM 12.2 °F 2.9 °F 5.0 °F 73% 30.06 in 10.0 mi ESE 5.8 mph - N/A   Overcast
7:55 PM 12.0 °F 0.5 °F 6.1 °F 77% 30.08 in 10.0 mi ESE 8.1 mph - N/A   Overcast
8:07 PM 12.2 °F 1.7 °F 6.8 °F 79% 30.02 in 10.0 mi ESE 6.9 mph - N/A   Overcast
8:55 PM 14.0 °F 3.9 °F 8.1 °F 77% 30.05 in 10.0 mi SE 6.9 mph - N/A   Overcast
9:55 PM 17.1 °F 7.6 °F 10.0 °F 74% 30.01 in 10.0 mi SE 6.9 mph - N/A   Overcast
10:55 PM 19.0 °F 9.0 °F 10.9 °F 71% 29.98 in 10.0 mi SSE 8.1 mph - N/A   Overcast
11:55 PM 19.9 °F 9.3 °F 12.0 °F 71% 29.94 in 10.0 mi SSE 9.2 mph - N/A   Overcast